Location: Untermarchtal
(48.2403°N, 9.6117°E)
Time: 21:35:48
(UTC+01:00)

OTV 5 (USA 277) - Visible Passes

Search period start: 23 February 2018 00:00
Search period end: 05 March 2018 00:00
Orbit: 404 x 417 km, 43.0° (Epoch: 07 September)

Date Brightness Start Highest point End Pass type
(mag) Time Alt. Az. Time Alt. Az. Time Alt. Az.
23 Feb ? 05:52:17 11° SSW 05:54:34 20° SSE 05:57:03 10° ESE visible
24 Feb ? 05:03:42 16° SSE 05:03:42 16° SSE 05:05:46 10° ESE visible
24 Feb ? 06:37:28 10° WSW 06:40:26 31° S 06:43:23 10° ESE visible
25 Feb ? 05:47:48 18° SW 05:49:28 28° S 05:52:20 10° ESE visible
26 Feb ? 04:59:06 23° SSE 04:59:06 23° SSE 05:01:16 10° ESE visible
26 Feb ? 06:32:24 10° WSW 06:35:23 32° S 06:38:23 10° ESE visible
27 Feb ? 05:43:07 23° SW 05:44:26 32° S 05:47:25 10° ESE visible
28 Feb ? 04:54:23 26° SE 04:54:23 26° SE 04:56:26 10° ESE visible
28 Feb ? 06:27:30 10° WSW 06:30:21 27° SSW 06:33:12 10° SE visible
01 Mar ? 05:38:23 25° SW 05:39:24 30° S 05:42:20 10° SE visible
02 Mar ? 04:49:40 24° SE 04:49:40 24° SE 04:51:26 10° ESE visible
02 Mar ? 06:22:49 10° WSW 06:25:15 19° SSW 06:27:40 10° SSE visible
03 Mar ? 05:33:44 22° SSW 05:34:20 23° SSW 05:37:01 10° SE visible
04 Mar ? 04:45:06 17° SE 04:45:06 17° SE 04:46:15 10° SE visible
04 Mar ? 06:18:56 10° SW 06:20:02 11° SSW 06:21:08 10° S visible
